Vertical_Velocity
3 3 -6 3 0 3 -1 -0 0 -1 -3 4 -0 -4 4 10 7 3 10 -2 2 3 -2 2 2 -1 -0 2 1 1 0 -0 -1 -2 -0 -1 -1 -1 -0 0 1 3 5 3 -3 -1 -3 0 -1
-9 -3 4 4 2 2 -3 1 -0 4 4 -3 -6 1 2 5 2 -3 -1 1 -3 2 -3 -1 0 -1 1 -0 1 2 1 -1 -2 -2 -0 -0 -0 -1 -2 6 2 -1 3 0 -1 -1 -1 -2 -1
-2 8 9 -1 0 0 2 0 2 4 -3 -1 2 0 2 7 -2 1 1 1 -0 2 4 3 2 0 0 1 -2 -1 0 1 -0 -1 -2 -0 1 -2 -2 0 0 -3 -1 -1 -2 -0 0 -0 -1
1 -4 -1 2 -2 2 0 2 1 1 -1 -1 1 -1 -3 0 -2 -0 1 2 1 -0 1 -3 3 2 -1 1 4 2 0 0 -1 -1 -0 -1 -1 0 -0 -1 1 1 -2 -1 -1 -3 0 0 0
-2 4 1 1 -4 2 1 2 -2 -0 0 1 -0 5 -1 3 -4 -0 1 1 -2 -0 -0 6 7 0 0 1 2 1 0 0 -1 -1 -1 1 -1 -2 -1 1 -1 -3 1 -2 -0 -1 -3 -0 3
2 4 2 -0 -2 3 1 -2 -1 1 0 -4 -0 2 5 0 -3 -3 0 2 -1 -3 0 0 1 0 -1 -1 2 0 -0 1 -1 -0 -0 -0 0 -1 -0 -1 0 1 -1 -1 -3 -0 -2 -3 -0
3 0 -2 -1 -2 2 1 -2 -0 -0 -2 6 -5 1 3 0 -2 2 -1 -3 2 1 -3 -1 -3 2 0 -2 -1 -1 2 2 0 0 -1 0 0 1 1 2 1 2 0 -1 -2 -2 -2 -2 -1
0 1 1 -0 0 4 3 -0 -3 2 6 -1 -4 3 5 1 -1 -2 0 1 -2 2 4 -1 -2 1 -0 1 -1 -2 -1 -1 -0 1 1 0 -0 1 -0 0 -1 1 1 -1 -2 -3 -3 -1 -2
-6 1 -0 -1 1 6 -0 0 -5 -4 -2 -0 6 3 -3 0 -0 2 -1 -2 1 -2 1 2 0 -1 1 1 1 1 -0 0 1 1 0 2 1 -1 1 1 2 -1 -1 -2 -2 -2 -3 -3 -1
3 1 3 4 3 2 0 -1 4 -4 2 -4 -5 -2 1 -3 1 -0 -1 -1 -4 -2 -1 -2 1 -2 -2 -1 3 -1 -1 -0 -1 0 -2 -5 -1 1 -0 -2 -1 1 0 1 -1 -1 -2 -3 -2
-0 2 1 4 -1 -2 1 -3 -0 0 -2 -3 8 17 21 14 2 -2 -3 -1 -0 -2 -3 -2 0 0 -5 -2 -2 -2 0 -2 1 -2 0 0 3 -5 2 -2 -1 -2 -2 -1 -2 -1 0 -3 -2
3 -0 -1 1 -1 -2 -0 -0 -3 3 -10 -2 2 0 -3 -2 -2 -1 2 1 -2 -1 -1 -2 -3 -2 -0 -1 0 -1 -0 -1 -3 -3 1 -1 2 1 -1 -3 -1 -1 -1 -1 -2 -1 -1 -2 -6
2 2 -3 2 -3 -2 1 -2 -4 -5 -8 1 -2 -5 -8 -3 -4 -3 -4 -3 0 -5 -1 1 -0 -2 -1 -1 0 -1 1 -1 -1 -1 -1 2 0 2 0 -0 -2 -1 0 -1 -1 -2 1 -0 0
1 -2 -0 -1 -1 -1 3 -3 7 -5 1 -3 -5 -5 -6 -5 -1 -1 1 -1 -2 -0 -1 1 -1 0 -1 -3 -1 -1 -2 3 1 -2 -1 1 2 -1 -0 2 -1 -1 -2 -0 -2 -1 -3 -3 -3
-2 1 1 0 2 1 -1 -3 1 3 6 3 -4 -8 -6 -8 -5 -6 -7 -6 -3 -1 0 0 -1 1 -2 -1 -1 -3 1 -2 -0 3 -2 1 -1 1 1 1 1 -2 2 -2 1 -1 1 5 -2
2 -0 1 4 -0 5 -6 -7 -1 -6 -2 -3 -2 -2 -5 -6 -2 -1 7 -3 -4 -6 -3 1 0 1 -1 -2 -1 -0 -1 -0 -2 -2 4 -1 2 -1 2 2 0 -2 -1 1 4 0 -0 1 1
0 -1 -0 3 0 0 -2 -3 -9 7 2 -3 -2 -3 -2 -2 1 1 -2 3 -1 -6 -4 -1 0 -0 0 2 1 -1 -0 0 -2 -2 -2 4 2 2 2 4 -1 1 -0 -1 3 -0 -2 -0 1
1 -0 -1 -0 1 3 -0 -6 -6 -5 6 -2 -2 -2 -2 -3 -3 -2 -1 -3 -2 -5 -8 -3 0 -1 -0 1 2 1 0 -0 2 -0 -2 -1 1 6 3 3 1 0 1 1 -1 1 -0 -3 -1
1 -0 1 -3 0 -2 -0 -1 -5 -7 1 -1 -2 3 3 0 -13 6 3 3 5 1 -4 -6 -2 -0 1 0 1 2 -2 0 0 2 3 -1 -1 2 4 -1 6 -1 0 1 0 1 -3 -1 1
-0 1 -2 -2 -0 5 -1 -9 -6 -1 -7 1 1 -6 -2 7 1 -3 10 -2 0 4 3 -2 -4 -3 -1 1 -1 2 2 -3 -0 2 4 5 -6 -5 -2 -0 -0 1 6 2 2 0 3 0 4
-0 1 -0 4 -2 -3 -2 -6 0 -1 -0 -3 -4 -4 -8 2 9 -4 -10 -10 -6 -2 2 2 2 -3 -3 -0 2 3 3 4 4 -2 -4 -2 7 3 3 -1 4 0 2 1 -3 -1 1 -5 1
0 1 1 -0 -4 -3 -6 -9 -3 -3 0 1 -1 -3 15 0 -8 -7 -7 -3 -6 -6 -3 2 4 2 1 -1 0 0 0 -2 -1 2 0 0 1 6 1 1 3 3 3 8 -0 2 -4 5 -6
2 0 1 1 -1 2 -2 5 -13 2 -1 -0 2 5 0 -4 -6 -10 -2 -4 -6 -5 -5 -1 -0 -1 1 0 -0 -0 -1 0 0 1 1 -2 2 -1 4 0 3 5 2 6 1 3 0 4 1
0 -1 -1 -1 -0 3 -5 -3 -9 -1 3 -1 -3 -4 -4 -4 -3 -2 0 -1 -3 -1 -1 -2 0 -2 -1 1 0 -2 2 -1 -0 -0 -0 -2 2 1 1 2 4 5 3 13 -1 1 10 2 6
-2 -0 -1 2 3 -7 -0 -1 -12 -4 2 4 2 -4 -5 -3 -6 -6 -6 -2 -6 -3 2 -4 0 1 -1 2 4 1 1 1 0 0 -1 -2 -4 -6 -6 -6 3 1 4 4 9 2 -0 5 -1
-1 -1 -0 -1 0 -2 -0 -4 -14 3 3 1 4 5 2 -4 -2 -2 2 -3 -1 -3 -1 -1 1 5 1 1 1 2 2 4 3 0 -2 -2 -1 4 8 8 2 -1 7 3 3 -1 11 8 4
-1 1 3 1 -2 4 -4 -4 -1 -3 -5 -6 -6 -5 -6 -4 1 -1 -0 1 -5 -3 -1 2 4 -5 -4 -1 -1 -2 -1 -1 -2 3 5 5 6 4 1 6 6 -2 1 -1 7 4 23 -3 -3
-3 3 1 2 1 -1 -3 -1 -4 -6 -5 -4 -7 -2 -4 -1 -4 -2 -0 0 2 3 3 2 4 3 -0 4 -1 -2 -0 1 1 2 0 -1 0 -1 -1 -4 5 5 4 6 3 5 2 -4 -8
3 1 2 4 1 1 0 -4 -1 2 2 1 -2 -1 3 2 5 3 -3 -2 1 4 3 3 1 -1 -2 -0 1 1 -0 -0 -1 -1 0 -2 -1 -2 -3 -3 -3 -1 3 -2 8 2 4 5 -3
-2 -1 -2 -2 0 -1 1 -9 0 2 1 3 -3 -3 0 0 0 2 5 13 12 11 -6 -1 -3 4 -1 -1 1 -0 3 1 -5 -4 -2 2 -3 0 -6 -3 -2 -3 1 4 -6 0 5 4 -6
Height
1506 1509 1512 1517 1524 1518 1518 1503 1496 1500 1501 1505 1505 1508 1513 1515 1517 1533 1528 1527 1528 1528 1529 1531 1532 1534 1537 1539 1541 1542 1543 1545 1546 1547 1548 1549 1549 1550 1551 1551 1552 1553 1554 1555 1556 1557 1557 1557 1557
1505 1511 1514 1514 1523 1525 1512 1499 1503 1505 1509 1509 1509 1510 1510 1521 1521 1524 1526 1526 1526 1527 1530 1531 1532 1535 1537 1540 1542 1543 1544 1546 1547 1548 1549 1550 1551 1552 1552 1553 1554 1555 1556 1557 1558 1558 1559 1559 1559
1508 1511 1514 1513 1515 1516 1511 1499 1503 1508 1511 1512 1512 1514 1515 1524 1525 1526 1526 1525 1526 1527 1530 1531 1533 1535 1538 1539 1542 1543 1545 1546 1547 1548 1550 1551 1552 1553 1554 1555 1556 1557 1558 1559 1559 1560 1561 1561 1561
1511 1514 1514 1515 1511 1501 1503 1501 1504 1510 1514 1513 1513 1518 1522 1526 1526 1527 1526 1526 1526 1527 1528 1532 1533 1535 1537 1540 1541 1543 1545 1546 1548 1549 1550 1551 1552 1554 1555 1556 1557 1558 1559 1560 1561 1562 1562 1562 1563
1511 1511 1514 1513 1507 1504 1502 1504 1507 1510 1512 1514 1514 1518 1524 1527 1527 1527 1526 1527 1526 1528 1529 1530 1533 1535 1538 1540 1542 1543 1545 1547 1548 1549 1550 1552 1552 1554 1555 1556 1558 1559 1560 1561 1562 1563 1563 1564 1565
1512 1510 1516 1518 1505 1502 1505 1509 1509 1509 1513 1516 1516 1516 1525 1526 1526 1527 1527 1526 1527 1529 1530 1531 1532 1534 1537 1539 1541 1543 1544 1546 1548 1549 1551 1552 1553 1554 1555 1556 1558 1560 1561 1562 1563 1564 1564 1565 1566
1511 1512 1513 1505 1503 1504 1506 1511 1512 1512 1514 1516 1518 1517 1525 1525 1526 1526 1527 1526 1527 1528 1530 1531 1532 1534 1536 1538 1540 1542 1544 1546 1547 1549 1550 1552 1553 1554 1556 1557 1558 1560 1561 1562 1563 1564 1565 1566 1567
1511 1509 1509 1503 1501 1507 1510 1513 1515 1514 1515 1517 1518 1519 1524 1524 1525 1526 1526 1527 1527 1528 1529 1531 1532 1533 1535 1538 1540 1541 1543 1545 1547 1548 1550 1551 1552 1554 1555 1557 1558 1560 1560 1561 1562 1564 1565 1566 1567
1512 1515 1513 1505 1502 1513 1514 1515 1518 1519 1519 1519 1520 1521 1523 1524 1525 1526 1526 1527 1527 1527 1529 1530 1531 1533 1534 1536 1538 1540 1541 1543 1545 1547 1549 1550 1551 1553 1554 1556 1558 1559 1560 1560 1561 1563 1564 1566 1567
1513 1514 1513 1513 1513 1514 1517 1519 1519 1521 1519 1520 1521 1522 1524 1525 1525 1525 1525 1525 1526 1526 1527 1528 1530 1531 1533 1534 1536 1537 1539 1541 1543 1545 1547 1549 1550 1552 1553 1555 1556 1558 1559 1560 1560 1562 1563 1565 1567
1512 1514 1513 1518 1519 1520 1520 1521 1522 1521 1521 1519 1520 1521 1523 1523 1524 1524 1524 1524 1524 1525 1526 1526 1527 1529 1530 1532 1533 1535 1536 1538 1540 1542 1544 1546 1549 1550 1552 1553 1554 1556 1557 1558 1559 1561 1562 1564 1565
1514 1514 1516 1519 1521 1522 1523 1523 1522 1521 1520 1518 1519 1520 1520 1520 1521 1522 1522 1522 1521 1521 1522 1524 1525 1526 1528 1529 1530 1532 1533 1534 1536 1539 1541 1543 1546 1547 1549 1551 1552 1553 1555 1556 1557 1559 1561 1563 1564
1513 1515 1517 1518 1521 1522 1523 1522 1522 1519 1518 1517 1518 1518 1517 1517 1518 1518 1518 1517 1517 1517 1518 1519 1521 1522 1524 1525 1527 1527 1529 1530 1532 1534 1538 1539 1542 1544 1545 1547 1549 1551 1552 1554 1555 1557 1559 1561 1564
1516 1518 1518 1518 1519 1520 1521 1519 1521 1515 1514 1514 1515 1515 1514 1514 1514 1514 1514 1513 1513 1513 1513 1514 1515 1516 1518 1520 1522 1523 1524 1526 1528 1529 1532 1536 1538 1540 1542 1544 1546 1548 1549 1552 1553 1555 1557 1559 1562
1519 1519 1514 1516 1518 1520 1520 1515 1513 1511 1513 1512 1511 1511 1510 1510 1509 1508 1509 1508 1508 1508 1508 1508 1509 1510 1511 1514 1516 1519 1520 1521 1523 1525 1527 1530 1532 1535 1538 1540 1542 1544 1547 1549 1552 1553 1555 1557 1559
1518 1519 1519 1518 1518 1520 1521 1523 1510 1510 1511 1510 1509 1508 1507 1506 1505 1505 1504 1504 1503 1503 1503 1503 1504 1505 1505 1507 1509 1512 1514 1517 1518 1520 1522 1524 1527 1529 1533 1535 1537 1540 1544 1546 1549 1550 1552 1554 1555
1520 1526 1515 1516 1518 1519 1521 1519 1510 1509 1508 1505 1504 1503 1502 1500 1500 1501 1501 1500 1499 1499 1498 1497 1498 1497 1499 1500 1502 1504 1506 1509 1512 1514 1516 1519 1521 1523 1526 1530 1532 1536 1539 1542 1544 1545 1547 1549 1552
1525 1523 1520 1521 1519 1518 1518 1513 1507 1504 1503 1498 1496 1496 1496 1496 1496 1497 1497 1497 1495 1493 1493 1492 1491 1491 1492 1493 1494 1496 1498 1500 1504 1507 1508 1512 1515 1518 1520 1524 1527 1531 1534 1536 1538 1541 1543 1545 1548
1523 1525 1526 1521 1515 1519 1516 1509 1503 1497 1496 1492 1491 1490 1490 1491 1492 1493 1492 1492 1490 1488 1486 1485 1484 1484 1485 1486 1487 1487 1488 1491 1495 1498 1502 1504 1508 1512 1515 1517 1521 1524 1526 1528 1532 1535 1538 1540 1543
1527 1527 1526 1519 1517 1519 1512 1500 1495 1488 1486 1487 1487 1488 1487 1489 1489 1489 1487 1485 1485 1484 1481 1478 1476 1477 1477 1478 1480 1481 1482 1483 1487 1490 1494 1497 1500 1504 1507 1510 1513 1517 1519 1523 1526 1528 1531 1534 1538
1526 1528 1527 1526 1522 1518 1513 1500 1486 1480 1481 1483 1486 1488 1488 1488 1486 1483 1481 1480 1478 1476 1474 1472 1470 1469 1469 1471 1473 1474 1476 1477 1479 1480 1484 1488 1492 1495 1499 1503 1506 1509 1512 1515 1518 1522 1524 1527 1531
1535 1529 1528 1526 1534 1546 1529 1529 1497 1484 1481 1481 1484 1486 1487 1483 1481 1479 1477 1474 1471 1467 1465 1463 1462 1461 1461 1463 1465 1466 1467 1468 1471 1474 1477 1480 1485 1488 1491 1495 1498 1501 1504 1506 1511 1514 1517 1521 1523
1531 1529 1528 1528 1537 1540 1523 1534 1502 1482 1479 1480 1483 1486 1482 1481 1479 1475 1472 1468 1463 1460 1456 1454 1452 1452 1453 1454 1456 1458 1459 1461 1464 1468 1471 1474 1477 1480 1484 1487 1491 1494 1497 1499 1503 1506 1509 1511 1515
1530 1529 1528 1530 1537 1538 1522 1529 1511 1490 1486 1485 1485 1483 1482 1478 1474 1470 1465 1460 1455 1452 1448 1444 1442 1441 1443 1446 1447 1449 1450 1453 1456 1459 1463 1467 1471 1474 1477 1480 1484 1487 1489 1491 1494 1499 1501 1503 1506
1534 1537 1538 1531 1536 1538 1527 1528 1505 1486 1486 1490 1491 1487 1481 1476 1470 1464 1458 1454 1449 1445 1441 1436 1433 1433 1436 1437 1438 1440 1443 1446 1448 1452 1456 1460 1463 1466 1469 1474 1476 1478 1480 1484 1487 1490 1493 1496 1498
1540 1540 1535 1546 1534 1529 1522 1525 1501 1485 1487 1489 1489 1484 1478 1471 1465 1459 1454 1449 1444 1440 1435 1431 1430 1429 1430 1430 1431 1433 1436 1439 1442 1446 1450 1453 1456 1459 1463 1466 1468 1471 1474 1476 1479 1483 1485 1487 1491
1537 1539 1534 1537 1524 1522 1515 1496 1483 1487 1487 1482 1482 1479 1473 1467 1461 1456 1450 1445 1440 1435 1430 1427 1425 1424 1424 1425 1427 1429 1430 1433 1435 1439 1444 1448 1451 1455 1459 1461 1463 1465 1467 1469 1472 1474 1477 1479 1483
1535 1538 1537 1537 1534 1523 1506 1493 1495 1495 1493 1489 1483 1478 1472 1466 1460 1453 1447 1440 1435 1430 1426 1422 1420 1420 1421 1423 1424 1425 1426 1428 1431 1435 1439 1443 1447 1450 1453 1456 1457 1459 1460 1462 1464 1467 1470 1473 1475
1535 1534 1535 1531 1526 1519 1512 1498 1501 1502 1497 1492 1486 1479 1472 1463 1457 1451 1445 1438 1432 1426 1420 1416 1415 1416 1418 1420 1421 1422 1423 1425 1427 1430 1433 1436 1441 1444 1447 1449 1451 1453 1455 1456 1458 1459 1463 1466 1469
1521 1520 1522 1533 1521 1522 1518 1504 1499 1499 1497 1493 1488 1482 1475 1467 1459 1449 1442 1436 1430 1424 1418 1413 1412 1412 1414 1416 1418 1419 1420 1422 1424 1425 1428 1431 1434 1438 1440 1443 1445 1446 1448 1450 1452 1454 1457 1460 1464